Regional Weather Roundup
Issued by NWS Cleveland, OH

Home | Current Version | Previous Version | Text Only | Print | Product List | Glossary Off
Versions: 1 2 3 4 5 6 7 8 9 10 11 12 13 14 15 16 17 18 19 20 21 22 23 24 25 26 27 28 29 30 31 32 33 34 35 36 37 38 39 40 41 42 43 44 45 46 47 48 49 50

000
ASUS41 KCLE 220502
RWRCLE
OHIO REGIONAL WEATHER ROUNDUP
NATIONAL WEATHER SERVICE CLEVELAND, OH
100 AM EDT TUE JUL 22 2014

NOTE: "FAIR" INDICATES FEW OR NO CLOUDS BELOW 12,000 FEET WITH NO
SIGNIFICANT WEATHER AND/OR OBSTRUCTIONS TO VISIBILITY.

OHZ001>008-015>018-024>027-034-035-043-044-220600-
   NORTHWEST OHIO

CITY           SKY/WX    TMP DP  RH WIND       PRES   REMARKS
DEFIANCE       CLEAR     68  61  78 CALM      30.11S
FINDLAY        CLEAR     71  64  78 SE5       30.11S
TOLEDO EXPRESS CLEAR     65  60  84 CALM      30.11F
TOLEDO EXEC    CLEAR     69  59  70 SE5       30.12S
LIMA           CLEAR     71  65  81 E6        30.12S
$$

OHZ009>014-019>023-028>033-038-089-220600-
   NORTHEAST OHIO

CITY           SKY/WX    TMP DP  RH WIND       PRES   REMARKS
CLE-HOPKINS    CLEAR     68  59  73 CALM      30.15R
CLE-LAKEFRONT  CLEAR     73  57  57 S6        30.11S
CUY CO. ARPT   NOT AVBL
LORAIN-ELYRIA  CLEAR     68  60  75 CALM      30.14R
ASHTABULA        N/A     61  59  93 CALM      30.15S FOG
AKRON-CANTON   PTCLDY    70  62  76 NE3       30.15S
WOOSTER        CLEAR     65  60  84 CALM      30.15S
MANSFIELD      CLEAR     69  59  70 SE6       30.15S
YOUNGSTOWN     PTCLDY    68  64  87 E5        30.15S
$$

OHZ042-051>053-060>062-070>072-077>081-220600-
  SOUTHWEST OHIO

CITY           SKY/WX    TMP DP  RH WIND       PRES   REMARKS
CINC-COVINGTON CLEAR     76  66  71 E3        30.11S
CINC-LUNKEN    CLEAR     68  68 100 CALM      30.10S FOG
HAMILTON       CLEAR     67  66  97 CALM      30.11S FOG
DAYTON         CLEAR     72  64  76 CALM      30.14R
WRIGHT-PAT AFB CLEAR     69  66  92 N2        30.12S
DAYTON GENERAL CLEAR     70  65  84 E6        30.11S
WILMINGTON     CLEAR     67  65  93 CALM      30.12F
$$

OHZ036-037-039>041-045>050-054>059-063>069-073>076-082>088-220600-
  CENTRAL AND SOUTHEAST OHIO

CITY           SKY/WX    TMP DP  RH WIND       PRES   REMARKS
COLUMBUS       CLEAR     76  67  73 SE5       30.11S
OSU AIRPORT    CLEAR     73  67  81 E3        30.11F
BOLTON FIELD   CLEAR     67  67  97 CALM      30.13S
RICKENBACK AFB CLEAR     72  65  76 CALM      30.10F
NEWARK         FOG       68  66  93 CALM      30.12S VSB 1/4
MARION         CLEAR     69  63  81 E3        30.13S
LANCASTER      FOG       67  65  93 CALM      30.12S VSB 1
ZANESVILLE     CLEAR     70  67  90 CALM      30.13S FOG
NEW PHILLY     CLEAR     68  66  94 CALM      30.14S FOG
$$


USA.gov is the U.S. government's official web portal to all federal, state and local government web resources and services.